Location: Observatorio Ernesto Juarez Davis
(29.2175°N, 110.7606°W)
Time: 02:39:08
(UTC-07:00)

Hubble Space Telescope - Pass Details

Date: 27 July 2019
Orbit: 536 x 540 km, 28.5° (Epoch: 20 August)

Event Time Altitude Azimuth Distance (km) Brightness Sun altitude
Exits shadow 03:16:43 11° 120° (ESE) 1,739 3.5 -27.0°
Drops below altitude 10° 03:16:52 10° 119° (ESE) 1,771 3.6 -27.0°
Sets 03:19:57 0° 95° (E) 2,674 4.9 -26.5°
